Orbital Elements at Epoch 2459200.5 (2020-Dec-17.0) TDB
Reference: JPL 13 (heliocentric ecliptic J2000)
Element | Value | Uncertainty (1-sigma) | Units |
e | .1853236202253103 | 5.5034e-08 | |
a | 3.1263583420262 | 2.8378e-08 | au |
q | 2.546970295960305 | 1.7738e-07 | au |
i | 1.600163264484949 | 6.3293e-06 | deg |
node | 144.2352160457594 | 0.00019703 | deg |
peri | 226.8666889133994 | 0.00019762 | deg |
M | 317.855186193456 | 1.7807e-05 | deg |
tp | 2459436.873180255015 (2021-Aug-10.37318025) | 0.00010201 | TDB |
period | 2019.094099748815 5.53 | 2.7491e-05 7.527e-08 | d yr |
n | .1782977821810215 | 2.4276e-09 | deg/d |
Q | 3.705746388092094 | 3.3637e-08 | au |
|
| | Orbit Determination Parameters
Additional Information
|